| time (UTC) | temp F | wind direction | speed MPH | gust MPH | rain 1hr in | rain 24hr in | rain mn in | humidity % | barometer mb |
| 20260504081506 | 51 | 203 | 4.0 | 5.0 | 0.00 | 0.00 | 0.00 | 54 | 1016.6 |
| 20260504081002 | 51 | 235 | 5.0 | 7.0 | 0.00 | 0.00 | 0.00 | 53 | 1016.6 |
| 20260504080458 | 51 | 225 | 4.0 | 6.0 | 0.00 | 0.00 | 0.00 | 52 | 1016.9 |
| 20260504050311 | 52 | 199 | 3.0 | 3.0 | 0.00 | 0.00 | 0.00 | 47 | 1017.1 |
| 20260504045809 | 52 | 193 | 6.0 | 7.0 | 0.00 | 0.00 | 0.00 | 45 | 1017.3 |
| 20260504045308 | 52 | 211 | 3.0 | 5.0 | 0.00 | 0.00 | 0.00 | 46 | 1017.3 |
| 20260504044806 | 52 | 244 | 6.0 | 9.0 | 0.00 | 0.00 | 0.00 | 45 | 1017.3 |
| 20260504044303 | 52 | 239 | 8.0 | 9.0 | 0.00 | 0.00 | 0.00 | 46 | 1017.4 |
| 20260504043800 | 52 | 220 | 5.0 | 7.0 | 0.00 | 0.00 | 0.00 | 46 | 1017.2 |
| 20260504043257 | 52 | 204 | 3.0 | 3.0 | 0.00 | 0.00 | 0.00 | 47 | 1017.2 |
| 20260504042755 | 52 | 221 | 5.0 | 7.0 | 0.00 | 0.00 | 0.00 | 46 | 1017.1 |
| 20260504042251 | 52 | 221 | 4.0 | 5.0 | 0.00 | 0.00 | 0.00 | 46 | 1017.4 |
| 20260504041747 | 52 | 215 | 4.0 | 6.0 | 0.00 | 0.00 | 0.00 | 46 | 1017.4 |
| 20260504041243 | 52 | 221 | 3.0 | 5.0 | 0.00 | 0.00 | 0.00 | 46 | 1017.2 |
| 20260504040739 | 52 | 225 | 5.0 | 6.0 | 0.00 | 0.00 | 0.00 | 46 | 1017.0 |
| 20260504040237 | 52 | 200 | 5.0 | 7.0 | 0.00 | 0.00 | 0.00 | 47 | 1017.2 |
| 20260504035733 | 51 | 211 | 7.0 | 9.0 | 0.00 | 0.00 | 0.00 | 46 | 1017.3 |
| 20260504035231 | 51 | 226 | 5.0 | 7.0 | 0.00 | 0.00 | 0.00 | 47 | 1017.3 |
| 20260504034729 | 51 | 196 | 4.0 | 5.0 | 0.00 | 0.00 | 0.00 | 46 | 1017.3 |
| 20260504034226 | 51 | 213 | 4.0 | 6.0 | 0.00 | 0.00 | 0.00 | 47 | 1017.5 |
| 20260504033723 | 51 | 197 | 3.0 | 3.0 | 0.00 | 0.00 | 0.00 | 47 | 1017.4 |
| 20260504033220 | 51 | 190 | 5.0 | 6.0 | 0.00 | 0.00 | 0.00 | 47 | 1017.4 |
| 20260504032717 | 51 | 211 | 4.0 | 6.0 | 0.00 | 0.00 | 0.00 | 47 | 1017.3 |
| 20260504032214 | 51 | 211 | 3.0 | 3.0 | 0.00 | 0.00 | 0.00 | 48 | 1017.3 |
| 20260504031710 | 50 | 225 | 5.0 | 6.0 | 0.00 | 0.00 | 0.00 | 49 | 1017.3 |
| 20260504031208 | 51 | 182 | 4.0 | 5.0 | 0.00 | 0.00 | 0.00 | 47 | 1017.5 |
| 20260504030703 | 51 | 213 | 2.0 | 3.0 | 0.00 | 0.00 | 0.00 | 48 | 1017.5 |
| 20260504030201 | 51 | 183 | 5.0 | 6.0 | 0.00 | 0.00 | 0.00 | 47 | 1017.5 |
| 20260504025657 | 50 | 208 | 3.0 | 3.0 | 0.00 | 0.00 | 0.00 | 48 | 1017.4 |
| 20260504025154 | 50 | 221 | 4.0 | 5.0 | 0.00 | 0.00 | 0.00 | 48 | 1017.8 |
| 20260504024651 | 50 | 198 | 2.0 | 2.0 | 0.00 | 0.00 | 0.00 | 49 | 1017.6 |
| 20260504024147 | 50 | 225 | 3.0 | 5.0 | 0.00 | 0.00 | 0.00 | 48 | 1017.6 |
| 20260504023645 | 50 | 200 | 1.0 | 2.0 | 0.00 | 0.00 | 0.00 | 50 | 1017.7 |
| 20260504023140 | 50 | 197 | 2.0 | 2.0 | 0.00 | 0.00 | 0.00 | 49 | 1017.5 |
| 20260504022637 | 50 | 190 | 3.0 | 5.0 | 0.00 | 0.00 | 0.00 | 49 | 1017.4 |
| 20260504022133 | 50 | 200 | 2.0 | 2.0 | 0.00 | 0.00 | 0.00 | 50 | 1017.5 |
| 20260504021631 | 50 | 201 | 2.0 | 2.0 | 0.00 | 0.00 | 0.00 | 49 | 1017.7 |
| 20260504021127 | 50 | 216 | 3.0 | 3.0 | 0.00 | 0.00 | 0.00 | 49 | 1017.6 |
| 20260504020625 | 50 | 201 | 3.0 | 3.0 | 0.00 | 0.00 | 0.00 | 48 | 1017.4 |
| 20260504020120 | 50 | 210 | 1.0 | 1.0 | 0.00 | 0.00 | 0.00 | 50 | 1017.6 |
| 20260504015617 | 51 | 212 | 2.0 | 2.0 | 0.00 | 0.00 | 0.00 | 48 | 1017.5 |
| 20260504015113 | 51 | 201 | 2.0 | 2.0 | 0.00 | 0.00 | 0.00 | 47 | 1017.5 |
| 20260504014609 | 51 | 230 | 3.0 | 3.0 | 0.00 | 0.00 | 0.00 | 47 | 1017.7 |
| 20260504014107 | 51 | 207 | 2.0 | 2.0 | 0.00 | 0.00 | 0.00 | 47 | 1017.6 |
| 20260504013604 | 51 | 198 | 1.0 | 2.0 | 0.00 | 0.00 | 0.00 | 47 | 1017.5 |
| 20260504013101 | 51 | 228 | 1.0 | 2.0 | 0.00 | 0.00 | 0.00 | 47 | 1017.6 |
| 20260504012558 | 51 | 209 | 3.0 | 3.0 | 0.00 | 0.00 | 0.00 | 47 | 1017.5 |
| 20260504012056 | 51 | 197 | 2.0 | 3.0 | 0.00 | 0.00 | 0.00 | 48 | 1017.6 |
| 20260504011553 | 51 | 203 | 3.0 | 5.0 | 0.00 | 0.00 | 0.00 | 46 | 1017.5 |
| 20260504011049 | 52 | 221 | 2.0 | 2.0 | 0.00 | 0.00 | 0.00 | 46 | 1017.4 |
| 20260504010544 | 51 | 213 | 3.0 | 3.0 | 0.00 | 0.00 | 0.00 | 46 | 1017.4 |
| 20260504010041 | 51 | 200 | 3.0 | 3.0 | 0.00 | 0.00 | 0.00 | 46 | 1017.4 |
| 20260504005538 | 52 | 220 | 1.0 | 1.0 | 0.00 | 0.00 | 0.00 | 47 | 1017.4 |
| 20260504005035 | 51 | 216 | 2.0 | 2.0 | 0.00 | 0.00 | 0.00 | 45 | 1017.5 |
| 20260504004533 | 51 | 197 | 2.0 | 2.0 | 0.00 | 0.00 | 0.00 | 47 | 1017.2 |
| 20260504004030 | 51 | 197 | 2.0 | 2.0 | 0.00 | 0.00 | 0.00 | 48 | 1017.4 |
| 20260504003526 | 51 | 197 | 2.0 | 2.0 | 0.00 | 0.00 | 0.00 | 46 | 1017.1 |
| 20260504003023 | 51 | 208 | 1.0 | 1.0 | 0.00 | 0.00 | 0.00 | 46 | 1017.3 |
| 20260504002520 | 51 | 216 | 2.0 | 2.0 | 0.00 | 0.00 | 0.00 | 46 | 1017.5 |
| 20260504002017 | 51 | 201 | 2.0 | 2.0 | 0.00 | 0.00 | 0.00 | 46 | 1017.1 |
| 20260504001515 | 51 | 196 | 2.0 | 2.0 | 0.00 | 0.00 | 0.00 | 46 | 1017.2 |
| 20260504001011 | 52 | 212 | 1.0 | 1.0 | 0.00 | 0.00 | 0.00 | 45 | 1017.1 |
| 20260504000508 | 52 | 219 | 1.0 | 1.0 | 0.00 | 0.00 | 0.00 | 45 | 1017.3 |
| 20260504000005 | 52 | 226 | 2.0 | 2.0 | 0.00 | 0.00 | 0.00 | 45 | 1017.3 |
| 20260503235503 | 53 | 241 | 3.0 | 5.0 | 0.00 | 0.00 | 0.00 | 43 | 1017.4 |
| 20260503235000 | 53 | 222 | 1.0 | 1.0 | 0.00 | 0.00 | 0.00 | 44 | 1017.3 |
| 20260503234457 | 53 | 235 | 1.0 | 2.0 | 0.00 | 0.00 | 0.00 | 43 | 1017.3 |
| 20260503233955 | 53 | 226 | 1.0 | 2.0 | 0.00 | 0.00 | 0.00 | 44 | 1017.2 |
| 20260503233452 | 54 | 255 | 5.0 | 6.0 | 0.00 | 0.00 | 0.00 | 41 | 1017.2 |
| 20260503232948 | 54 | 216 | 2.0 | 3.0 | 0.00 | 0.00 | 0.00 | 42 | 1017.4 |
| 20260503232445 | 54 | 226 | 3.0 | 3.0 | 0.00 | 0.00 | 0.00 | 41 | 1017.3 |
| 20260503231943 | 54 | 231 | 3.0 | 3.0 | 0.00 | 0.00 | 0.00 | 41 | 1017.3 |
| 20260503231440 | 55 | 243 | 3.0 | 3.0 | 0.00 | 0.00 | 0.00 | 42 | 1017.5 |
| 20260503230937 | 55 | 258 | 4.0 | 6.0 | 0.00 | 0.00 | 0.00 | 40 | 1017.4 |
| 20260503230433 | 55 | 227 | 2.0 | 2.0 | 0.00 | 0.00 | 0.00 | 40 | 1017.3 |
| 20260503225931 | 55 | 257 | 2.0 | 3.0 | 0.00 | 0.00 | 0.00 | 40 | 1017.4 |
| 20260503225427 | 55 | 258 | 4.0 | 6.0 | 0.00 | 0.00 | 0.00 | 40 | 1017.5 |
| 20260503224923 | 56 | 259 | 6.0 | 8.0 | 0.00 | 0.00 | 0.00 | 39 | 1017.4 |
| 20260503224420 | 56 | 221 | 3.0 | 3.0 | 0.00 | 0.00 | 0.00 | 39 | 1017.5 |
| 20260503223918 | 56 | 242 | 5.0 | 8.0 | 0.00 | 0.00 | 0.00 | 39 | 1017.6 |
| 20260503223416 | 56 | 236 | 5.0 | 6.0 | 0.00 | 0.00 | 0.00 | 38 | 1017.5 |
| 20260503222916 | 56 | 248 | 3.0 | 3.0 | 0.00 | 0.00 | 0.00 | 39 | 1017.4 |
| 20260503222415 | 56 | 257 | 4.0 | 6.0 | 0.00 | 0.00 | 0.00 | 39 | 1017.5 |
| 20260503221913 | 56 | 302 | 2.0 | 3.0 | 0.00 | 0.00 | 0.00 | 39 | 1017.7 |
| 20260503221411 | 57 | 241 | 4.0 | 5.0 | 0.00 | 0.00 | 0.00 | 40 | 1017.4 |
| 20260503220907 | 57 | 240 | 3.0 | 5.0 | 0.00 | 0.00 | 0.00 | 39 | 1017.3 |
| 20260503220404 | 57 | 341 | 7.0 | 9.0 | 0.00 | 0.00 | 0.00 | 38 | 1017.5 |
| 20260503215900 | 57 | 261 | 1.0 | 2.0 | 0.00 | 0.00 | 0.00 | 40 | 1017.4 |
| 20260503215358 | 57 | 237 | 5.0 | 8.0 | 0.00 | 0.00 | 0.00 | 38 | 1017.7 |
| 20260503214855 | 57 | 263 | 6.0 | 8.0 | 0.00 | 0.00 | 0.00 | 39 | 1017.4 |
| 20260503214352 | 57 | 235 | 4.0 | 5.0 | 0.00 | 0.00 | 0.00 | 40 | 1017.4 |
| 20260503213850 | 57 | 241 | 2.0 | 3.0 | 0.00 | 0.00 | 0.00 | 39 | 1017.6 |
| 20260503213347 | 56 | 213 | 4.0 | 5.0 | 0.00 | 0.00 | 0.00 | 38 | 1017.4 |
| 20260503212844 | 55 | 241 | 2.0 | 2.0 | 0.00 | 0.00 | 0.00 | 39 | 1017.3 |
| 20260503212342 | 55 | 248 | 1.0 | 1.0 | 0.00 | 0.00 | 0.00 | 43 | 1017.6 |
| 20260503211839 | 57 | 233 | 5.0 | 7.0 | 0.00 | 0.00 | 0.00 | 40 | 1017.4 |
| 20260503211336 | 56 | 252 | 6.0 | 7.0 | 0.00 | 0.00 | 0.00 | 39 | 1017.5 |
| 20260503210831 | 57 | 224 | 1.0 | 2.0 | 0.00 | 0.00 | 0.00 | 39 | 1017.7 |
| 20260503210328 | 56 | 219 | 5.0 | 7.0 | 0.00 | 0.00 | 0.00 | 41 | 1017.4 |
| 20260503205823 | 56 | 311 | 6.0 | 8.0 | 0.00 | 0.00 | 0.00 | 40 | 1017.7 |
| 20260503205320 | 56 | 339 | 7.0 | 7.0 | 0.00 | 0.00 | 0.00 | 40 | 1017.7 |
| 20260503204817 | 56 | 247 | 6.0 | 7.0 | 0.00 | 0.00 | 0.00 | 41 | 1017.8 |
| 20260503204314 | 55 | 187 | 2.0 | 2.0 | 0.00 | 0.00 | 0.00 | 42 | 1017.8 |
| 20260503203811 | 55 | 238 | 9.0 | 10.0 | 0.00 | 0.00 | 0.00 | 40 | 1017.8 |
| 20260503203309 | 57 | 269 | 12.0 | 17.0 | 0.00 | 0.00 | 0.00 | 39 | 1017.7 |
| 20260503202805 | 55 | 228 | 2.0 | 2.0 | 0.00 | 0.00 | 0.00 | 40 | 1017.7 |
| 20260503202304 | 55 | 227 | 3.0 | 5.0 | 0.00 | 0.00 | 0.00 | 41 | 1018.0 |
| 20260503201801 | 54 | 227 | 5.0 | 7.0 | 0.00 | 0.00 | 0.00 | 41 | 1018.2 |
| 20260503201258 | 55 | 218 | 4.0 | 5.0 | 0.00 | 0.00 | 0.00 | 42 | 1018.1 |
| 20260503200755 | 56 | 358 | 5.0 | 5.0 | 0.00 | 0.00 | 0.00 | 38 | 1018.1 |
| 20260503200251 | 55 | 282 | 7.0 | 11.0 | 0.00 | 0.00 | 0.00 | 39 | 1018.2 |
| 20260503195748 | 55 | 333 | 7.0 | 8.0 | 0.00 | 0.00 | 0.00 | 39 | 1018.5 |
| 20260503195245 | 56 | 230 | 8.0 | 11.0 | 0.00 | 0.00 | 0.00 | 40 | 1018.5 |
| 20260503194743 | 55 | 266 | 7.0 | 8.0 | 0.00 | 0.00 | 0.00 | 40 | 1018.7 |
| 20260503194238 | 55 | 249 | 9.0 | 11.0 | 0.00 | 0.00 | 0.00 | 39 | 1018.7 |
| 20260503193734 | 57 | 235 | 7.0 | 10.0 | 0.00 | 0.00 | 0.00 | 41 | 1018.7 |
| 20260503193231 | 56 | 235 | 1.0 | 1.0 | 0.00 | 0.00 | 0.00 | 43 | 1018.7 |
| 20260503192726 | 56 | 229 | 3.0 | 3.0 | 0.00 | 0.00 | 0.00 | 44 | 1018.9 |
| 20260503192222 | 54 | 225 | 3.0 | 5.0 | 0.00 | 0.00 | 0.00 | 42 | 1019.0 |
| 20260503191719 | 55 | 236 | 5.0 | 7.0 | 0.00 | 0.00 | 0.00 | 41 | 1019.0 |
| 20260503191216 | 55 | 232 | 2.0 | 2.0 | 0.00 | 0.00 | 0.00 | 41 | 1018.9 |
| 20260503190713 | 54 | 334 | 5.0 | 7.0 | 0.00 | 0.00 | 0.00 | 43 | 1019.2 |
| 20260503190209 | 55 | 239 | 5.0 | 6.0 | 0.00 | 0.00 | 0.00 | 41 | 1019.1 |
| 20260503185707 | 55 | 264 | 5.0 | 7.0 | 0.00 | 0.00 | 0.00 | 40 | 1019.3 |
| 20260503185202 | 55 | 15 | 9.0 | 10.0 | 0.00 | 0.00 | 0.00 | 40 | 1019.2 |
| 20260503184657 | 55 | 286 | 7.0 | 9.0 | 0.00 | 0.00 | 0.00 | 44 | 1019.2 |
| 20260503184154 | 53 | 227 | 6.0 | 7.0 | 0.00 | 0.00 | 0.00 | 41 | 1019.3 |
| 20260503183649 | 55 | 229 | 6.0 | 8.0 | 0.00 | 0.00 | 0.00 | 43 | 1019.3 |
| 20260503183147 | 54 | 238 | 6.0 | 8.0 | 0.00 | 0.00 | 0.00 | 42 | 1019.5 |
| 20260503182645 | 53 | 232 | 8.0 | 9.0 | 0.00 | 0.00 | 0.00 | 41 | 1019.6 |
| 20260503182144 | 53 | 35 | 5.0 | 7.0 | 0.00 | 0.00 | 0.00 | 45 | 1019.3 |
| 20260503181640 | 53 | 218 | 1.0 | 1.0 | 0.00 | 0.00 | 0.00 | 41 | 1019.6 |
| 20260503181137 | 53 | 211 | 3.0 | 3.0 | 0.00 | 0.00 | 0.00 | 46 | 1019.4 |
| 20260503180634 | 54 | 253 | 9.0 | 11.0 | 0.00 | 0.00 | 0.00 | 40 | 1019.6 |
| 20260503180132 | 53 | 177 | 1.0 | 2.0 | 0.00 | 0.00 | 0.00 | 45 | 1019.6 |
| 20260503175629 | 51 | 315 | 6.0 | 9.0 | 0.00 | 0.00 | 0.00 | 45 | 1019.6 |
| 20260503175125 | 52 | 239 | 10.0 | 13.0 | 0.00 | 0.00 | 0.00 | 44 | 1019.9 |
| 20260503174622 | 53 | 255 | 3.0 | 3.0 | 0.00 | 0.00 | 0.00 | 41 | 1019.9 |
| 20260503174120 | 51 | 254 | 7.0 | 8.0 | 0.00 | 0.00 | 0.00 | 45 | 1020.0 |
| 20260503173614 | 52 | 293 | 5.0 | 6.0 | 0.00 | 0.00 | 0.00 | 44 | 1020.0 |
| 20260503173111 | 52 | 238 | 1.0 | 1.0 | 0.00 | 0.00 | 0.00 | 43 | 1020.0 |
| 20260503172608 | 52 | 314 | 8.0 | 10.0 | 0.00 | 0.00 | 0.00 | 45 | 1020.0 |
| 20260503172106 | 51 | 231 | 4.0 | 7.0 | 0.00 | 0.00 | 0.00 | 44 | 1019.9 |
| 20260503171601 | 51 | 177 | 4.0 | 6.0 | 0.00 | 0.00 | 0.00 | 47 | 1020.3 |
| 20260503171059 | 51 | 235 | 3.0 | 3.0 | 0.00 | 0.00 | 0.00 | 49 | 1020.1 |
| 20260503170555 | 51 | 241 | 3.0 | 5.0 | 0.00 | 0.00 | 0.00 | 48 | 1020.3 |
| 20260503150948 | 46 | 236 | 5.0 | 7.0 | 0.00 | 0.00 | 0.00 | 55 | 1021.2 |
| 20260503150444 | 46 | 213 | 2.0 | 3.0 | 0.00 | 0.00 | 0.00 | 54 | 1021.0 |
| 20260503131337 | 41 | 255 | 4.0 | 6.0 | 0.00 | 0.00 | 0.00 | 73 | 1021.2 |
| 20260503130835 | 41 | 240 | 4.0 | 6.0 | 0.00 | 0.00 | 0.00 | 73 | 1021.2 |
| 20260503130332 | 41 | 228 | 4.0 | 5.0 | 0.00 | 0.00 | 0.00 | 74 | 1021.2 |
| 20260503110726 | 34 | 195 | 1.0 | 1.0 | 0.00 | 0.00 | 0.00 | 91 | 1020.0 |
| 20260503110223 | 33 | 206 | 0.0 | 0.0 | 0.00 | 0.00 | 0.00 | 91 | 1020.3 |
| 20260503100149 | 34 | 219 | 0.0 | 0.0 | 0.00 | 0.00 | 0.00 | 90 | 1019.4 |